Probability
8 9 11 10 9 7 5 3 3 2 1 1 0 0 0 0 0 0 0 0 0 0 0 0 0 0 0 0 0 0 0 0 0 0 0 0 0 0
6 7 8 10 10 9 6 4 3 2 2 1 0 0 0 0 0 0 0 0 0 0 0 0 0 0 0 0 0 0 0 0 0 0 0 0 0 0
3 3 5 6 8 8 7 5 4 3 2 1 1 0 0 0 0 0 0 0 0 0 0 0 0 0 0 0 0 0 0 0 0 0 0 0 0 0
1 1 1 2 3 5 5 5 5 3 1 1 1 0 0 0 0 0 0 0 0 0 0 0 0 0 0 0 0 0 0 0 0 0 0 0 0 0
0 0 0 0 1 2 2 3 3 2 0 1 1 0 0 0 0 0 0 0 0 0 0 0 0 0 0 0 0 0 0 0 0 0 0 0 0 0
0 0 0 0 0 1 1 1 1 0 0 0 0 0 0 0 0 0 0 0 0 0 0 0 0 0 0 0 0 0 0 0 0 0 0 0 0 0
0 0 0 0 0 0 0 0 0 0 0 0 0 0 0 0 0 0 0 0 0 0 0 0 0 0 0 0 0 0 0 0 0 0 0 0 0 0
0 0 0 0 0 0 0 0 0 0 0 0 0 0 0 0 0 0 0 0 0 0 0 0 0 0 0 0 0 0 0 0 0 0 0 0 0 0
0 0 0 0 0 0 0 0 0 0 0 0 0 0 0 0 0 0 0 0 0 0 0 0 0 0 0 0 0 0 0 0 0 0 0 0 0 0
0 0 0 0 0 0 0 0 0 0 0 0 0 0 0 0 0 0 0 0 0 0 0 0 0 0 0 0 0 0 0 0 0 0 0 0 0 0
0 0 0 0 0 0 0 0 0 0 0 0 0 0 0 0 0 0 0 0 0 0 0 0 0 0 0 0 0 0 0 0 0 0 0 0 0 0
0 0 0 0 0 0 0 0 0 0 0 0 0 0 0 0 0 0 0 0 0 0 0 0 0 0 0 0 0 0 0 0 0 0 0 0 0 0
0 0 0 0 0 0 0 0 0 0 0 0 0 0 0 0 0 0 0 0 0 0 0 0 0 0 0 0 0 0 0 0 0 0 0 0 0 0
0 0 0 0 0 0 0 0 0 0 0 0 0 0 0 0 0 0 0 0 0 0 0 0 0 0 0 0 0 0 0 0 0 0 0 0 0 0
0 0 0 0 0 0 0 0 0 0 0 0 0 0 0 0 0 0 0 0 0 0 0 0 0 0 0 0 0 0 0 0 0 0 0 0 0 0
0 0 0 0 0 0 0 0 0 0 0 0 0 0 0 0 0 0 0 0 0 0 0 0 0 0 0 0 0 0 0 0 0 0 0 0 0 0
0 0 0 0 0 0 0 0 0 0 0 0 0 0 0 0 0 0 0 0 0 0 0 0 0 0 0 0 0 0 0 0 0 0 0 0 0 0
0 0 0 0 0 0 0 0 0 0 0 0 0 0 0 0 0 0 0 0 0 0 0 0 0 0 0 0 0 0 0 0 0 0 0 0 0 0
0 0 0 0 0 0 0 0 0 0 0 0 0 0 0 0 0 0 0 0 0 0 0 0 0 0 0 0 0 0 0 0 0 0 0 0 0 0
0 0 0 0 0 0 0 0 0 0 0 0 0 0 0 0 0 0 0 0 0 0 0 0 0 0 0 0 0 0 0 0 0 0 0 0 0 0
0 0 0 0 0 0 0 0 0 0 0 0 0 0 0 0 0 0 0 0 0 0 0 0 0 0 0 0 0 0 0 0 0 0 0 0 0 0
0 0 0 0 0 0 0 0 0 0 0 0 0 0 0 0 0 0 0 0 0 0 0 0 0 0 0 0 0 0 0 0 0 0 0 0 0 0
0 0 0 0 0 0 0 0 0 0 0 0 0 0 0 0 0 0 0 0 0 0 0 0 0 0 0 0 0 0 0 0 0 0 0 0 0 0
Wind_Speed
6 7 5 5 5 5 4 4 4 4 4 3 2 2 2 1 1 5 6 7 8 8 9 9 8 8 7 7 6 5 4 4 4 4 4 3 3 3
4 6 5 4 4 4 4 4 4 4 3 2 2 2 2 2 2 4 2 6 6 6 7 7 7 7 7 7 6 6 5 5 5 5 5 5 5 5
4 4 4 4 4 3 4 4 4 3 3 2 2 2 3 2 3 2 3 4 5 5 4 4 5 6 6 6 6 5 6 6 6 6 6 6 6 6
3 3 3 3 3 3 3 4 3 4 3 3 2 2 2 2 2 2 2 2 2 6 4 3 3 3 4 4 3 4 5 5 6 6 7 7 7 7
2 3 3 3 2 2 4 3 3 3 2 2 2 2 2 2 2 2 3 2 2 5 5 4 3 2 2 2 1 2 3 4 5 6 6 7 7 7
3 3 3 3 2 2 2 3 3 3 3 3 3 3 2 2 2 2 3 3 2 3 3 3 5 4 3 2 1 1 1 2 3 4 5 5 5 6
3 3 4 4 4 2 1 2 3 3 3 3 3 3 3 2 2 2 3 3 4 2 2 3 3 2 3 3 4 4 3 3 2 2 2 3 3 4
4 4 4 4 5 5 5 4 2 2 3 3 3 3 4 3 2 2 3 3 3 2 2 3 3 4 5 5 8 8 7 6 5 3 2 2 2 2
5 4 4 4 3 5 7 7 6 6 3 2 4 4 4 3 3 3 2 3 3 2 1 3 4 5 5 7 10 10 10 8 7 6 5 5 4 3
6 5 5 4 4 3 5 6 7 7 5 4 5 5 3 2 2 3 4 5 5 2 0 2 3 4 5 6 10 12 11 11 10 9 8 6 5 5
7 7 6 6 6 2 5 8 8 8 9 11 11 9 9 7 3 2 3 3 3 3 1 2 3 3 4 5 7 11 12 12 13 13 12 9 6 3
6 7 9 7 5 4 4 6 7 7 7 8 8 7 7 7 3 2 1 1 3 3 2 1 3 3 3 4 4 4 6 9 11 13 14 13 11 4
5 5 6 8 8 7 5 6 6 5 6 6 6 6 5 5 5 5 5 3 2 3 1 1 1 1 3 4 3 4 4 4 5 7 11 13 13 9
5 5 6 9 10 9 7 8 6 3 5 5 5 5 5 5 5 6 7 7 6 5 2 1 1 1 2 4 3 3 5 5 5 5 5 6 8 10
6 9 8 7 7 8 9 5 3 3 4 4 5 4 4 4 4 4 6 7 8 7 6 5 4 2 3 4 4 2 3 4 5 4 5 6 6 6
6 7 7 7 6 6 5 4 4 4 3 4 4 4 4 3 3 3 3 4 5 6 8 9 8 7 6 6 5 4 3 3 3 4 4 5 5 6
2 3 4 4 5 5 5 5 4 4 4 4 4 4 4 3 3 3 3 3 4 5 5 6 8 9 10 7 5 4 4 3 3 3 2 3 5 5
1 4 4 4 4 4 4 4 4 4 3 3 3 3 3 3 3 3 3 4 4 4 4 3 3 4 5 7 8 3 3 3 2 2 2 2 3 4
3 4 4 4 4 4 3 3 3 3 3 3 3 3 3 3 3 3 3 4 4 4 3 1 0 1 1 3 5 6 4 2 1 2 2 2 2 3
3 3 3 3 3 3 3 3 3 3 2 3 3 3 2 3 3 3 3 3 3 3 3 2 2 2 2 3 3 4 5 3 2 1 1 0 0 2
3 2 2 2 2 2 2 2 2 2 2 2 3 2 2 2 3 3 3 3 1 2 3 3 3 1 1 2 3 3 4 4 4 4 3 2 2 1
2 2 1 1 1 1 1 1 1 2 2 2 2 2 2 2 3 3 2 3 2 2 3 3 3 1 0 1 2 3 3 3 4 4 3 4 4 4
1 1 1 1 1 1 1 1 1 1 2 1 2 2 2 2 2 2 2 2 2 3 3 3 2 1 1 1 1 1 2 1 0 1 2 4 2 3
Wind_Direction
216 216 215 214 214 219 220 218 219 223 220 198 176 159 192 214 178 227 230 178 197 208 210 210 209 211 213 222 227 228 241 253 257 259 261 276 286 295
206 211 208 209 209 209 213 218 221 227 227 185 172 157 176 195 197 243 226 152 187 199 205 209 211 212 214 220 219 220 228 238 245 247 254 263 271 278
195 200 202 197 191 194 200 206 211 212 217 189 163 172 185 183 172 203 195 188 161 167 185 199 208 208 211 215 219 225 234 238 243 247 255 260 264 270
180 187 190 180 182 186 193 198 196 201 203 189 157 160 160 149 157 159 162 151 140 130 148 167 185 193 200 208 215 228 236 240 245 250 257 262 268 272
158 159 160 155 166 179 193 190 185 185 186 169 142 127 134 137 150 137 132 125 124 135 146 152 145 144 158 177 207 241 251 253 254 256 261 266 271 276
108 124 134 135 140 154 170 169 162 158 156 154 146 143 132 130 159 147 139 122 111 112 104 107 122 125 114 101 72 5 307 287 271 264 263 267 274 280
90 98 90 85 70 81 111 142 157 157 153 147 142 141 135 142 134 139 127 125 97 79 99 99 110 98 102 98 72 49 37 16 344 310 289 282 282 286
72 77 96 105 104 102 86 75 58 122 137 142 140 134 123 117 115 132 142 157 120 76 90 81 73 68 55 50 49 52 46 41 33 27 15 351 340 334
69 71 73 79 91 108 118 127 95 65 43 101 116 107 112 121 139 133 120 96 85 82 100 90 78 76 69 59 55 54 50 47 44 42 42 42 43 43
69 68 73 77 65 82 115 107 94 79 64 78 87 81 79 95 112 115 116 114 110 92 76 107 96 87 84 72 61 58 53 49 48 45 43 43 49 62
68 61 61 74 55 25 114 112 105 93 72 69 69 77 67 49 31 137 150 153 132 110 51 100 117 110 92 86 81 73 64 56 52 49 46 40 35 66
74 69 58 61 57 2 115 113 111 110 115 114 107 113 101 87 32 63 77 126 132 119 91 132 153 154 123 85 71 74 78 74 67 56 49 39 18 25
70 64 60 60 55 35 41 84 91 108 111 105 99 92 85 79 69 59 48 30 61 88 82 264 177 165 125 120 80 53 47 50 63 72 63 52 38 32
64 63 69 68 65 54 62 79 88 104 112 111 103 93 84 78 73 72 69 63 57 65 59 352 47 70 127 125 110 86 58 46 45 48 54 71 69 64
67 67 71 73 87 80 73 77 108 109 108 106 99 88 81 83 88 89 87 82 74 60 50 52 61 62 72 95 100 97 89 61 46 47 51 46 42 38
91 99 96 77 81 89 99 87 76 70 85 98 101 104 103 100 97 100 106 109 91 72 55 55 58 67 73 75 83 76 64 65 47 46 54 56 51 46
61 90 84 83 79 79 79 75 80 93 90 96 107 110 109 104 95 86 84 92 98 99 90 75 75 74 63 50 81 72 71 68 57 35 45 63 57 47
36 83 75 70 68 69 76 82 78 77 82 91 98 103 106 106 104 98 98 102 106 104 105 111 122 130 120 79 30 44 63 60 52 40 23 37 65 59
74 78 74 72 71 72 73 78 78 75 75 91 98 101 105 105 104 104 109 113 109 105 97 83 1 258 180 120 84 24 16 50 42 40 33 23 33 49
68 73 76 74 72 72 75 79 85 88 88 92 97 100 107 112 111 109 105 109 119 122 113 85 42 14 22 78 102 80 25 10 8 23 23 343 104 174
79 77 73 73 75 76 74 75 87 95 98 101 100 104 114 123 124 123 113 102 115 123 109 87 73 345 75 126 125 116 90 59 14 359 345 312 290 271
95 100 94 77 81 84 88 96 111 115 116 110 104 109 115 127 131 138 140 146 134 114 105 106 135 181 195 115 116 119 123 134 132 122 61 5 340 337
150 153 149 161 152 151 160 156 160 135 131 125 126 127 127 130 138 143 142 139 133 136 139 136 136 122 101 120 130 123 130 173 245 216 145 150 200 254